[[{"header":{"parameterUnit":"m.s-1","parameterCategory":1,"la1":30.2992,"la2":30.254,"lo1":-89.0895,"lo2":-89.0443,"dy":0.0025,"dx":0.0025,"nx":19,"ny":19,"refTime":"2026-05-23T21:00:00:Z","depth":0,"parameterNumber":2,"parameterNumberName":"U-component_of_WINDS"},"data":[0,0,0,0.2606,0.2605,0.2523,0.2523,0.2428,0.2428,0,0,0,0,0,0,0,0,0,0,0,0.2637,0.2637,0.2607,0.2605,0.2523,0.2523,0.2428,0.2428,0,0,0,0,0,0,0,0,0,0,0,0.2637,0.2637,0.2636,0.2604,0.2524,0.2523,0.2429,0.2486,0,0,0,0,0,0,0,0,0,0,0.2564,0.2598,0.2637,0.2636,0.2604,0.2524,0.2523,0.2489,0.2483,0.2469,0,0.246,0,0.2442,0.2422,0.2422,0,0,0,0.26,0.2604,0.2576,0.2636,0.2603,0.2524,0.2559,0.2486,0.2478,0.2461,0.2458,0.2454,0.2441,0.2421,0.2421,0.2361,0.2361,0,0,0.2604,0.2626,0.2581,0.2572,0.2586,0.2561,0.2556,0.2481,0.2479,0.2458,0.2452,0.2439,0.2421,0.242,0.2361,0.2361,0,0,0,0.2621,0.2629,0.2603,0.2576,0.2561,0.2559,0.2553,0.2482,0.2472,0.2451,0.2438,0.242,0.2419,0.2361,0.2361,0.2379,0,0,0,0.2623,0.2638,0.2605,0.2617,0.2562,0.2521,0.2556,0.2477,0.2468,0.2438,0.242,0.2418,0.2361,0.2361,0.2378,0.2384,0,0,0,0.264,0.264,0.2631,0.2619,0.2584,0.2521,0.2507,0.2475,0.2461,0.2421,0.2418,0.2361,0.2361,0.2378,0.2383,0.2374,0,0,0,0.2664,0.2648,0.2631,0.2608,0.2585,0.2534,0.2507,0.2467,0.2436,0.242,0.2361,0.2361,0.2378,0.2383,0.2374,0.237,0.237,0,0,0.2656,0.2648,0.2632,0.2615,0.2572,0.2544,0.2503,0.2454,0.2431,0.2385,0.2383,0.2378,0.2383,0.2374,0.2366,0.2367,0,0,0,0.2637,0.2626,0.261,0.2582,0.2544,0.2512,0.2467,0.2449,0.2409,0.2412,0.2372,0.2374,0.2368,0.2365,0.2365,0.2358,0.236,0.236,0.236,0.2655,0.2626,0.2599,0.256,0.2533,0.2486,0.2461,0.2428,0.2407,0.2398,0.2385,0.2384,0.2381,0.2381,0.2374,0.238,0.238,0.2381,0.2381,0.264,0.262,0.2592,0.2555,0.2525,0.2493,0.2448,0.2433,0.2399,0.2392,0.2385,0.2379,0.2383,0.2375,0.2382,0.2381,0.2381,0.2381,0.2381,0.2648,0.2634,0.2612,0.2568,0.2536,0.2497,0.2466,0.2439,0.2413,0.2406,0.2388,0.2388,0.2383,0.2399,0.2399,0.2399,0.2399,0.2399,0.2399,0.2666,0.2641,0.2618,0.2577,0.2554,0.2522,0.2475,0.2452,0.2419,0.2402,0.2402,0.2381,0.2389,0.2391,0.2399,0.2399,0.2399,0.2399,0.2399,0.2661,0.2657,0.2622,0.26,0.2549,0.2519,0.2485,0.2441,0.2418,0.2403,0.2383,0.2394,0.2383,0.2383,0.2385,0.239,0.239,0.239,0.239,0.2668,0.266,0.2617,0.2584,0.2547,0.2513,0.2473,0.2436,0.2397,0.238,0.2376,0.2376,0.2376,0.2366,0.2365,0.2367,0.2367,0.2367,0.2367,0.2663,0.265,0.2622,0.2584,0.2542,0.2506,0.2467,0.2428,0.2383,0.2366,0.2367,0.2368,0.2368,0.2369,0.2352,0.2352,0.2353,0,0]},{"header":{"parameterUnit":"m.s-1","parameterCategory":1,"la1":30.2992,"la2":30.254,"lo1":-89.0895,"lo2":-89.0443,"dy":0.0025,"dx":0.0025,"nx":19,"ny":19,"refTime":"2026-05-23T21:00:00:Z","depth":0,"parameterNumber":3,"parameterNumberName":"V-component_of_WINDS"},"data":[0,0,0,0.8049,0.8046,0.7896,0.7896,0.7712,0.7711,0,0,0,0,0,0,0,0,0,0,0,0.8101,0.81,0.8049,0.8046,0.7896,0.7896,0.7713,0.7711,0,0,0,0,0,0,0,0,0,0,0,0.8101,0.81,0.8099,0.8045,0.7896,0.7896,0.7713,0.7822,0,0,0,0,0,0,0,0,0,0,0.7966,0.8022,0.8101,0.8099,0.8044,0.7897,0.7895,0.7827,0.7816,0.7785,0,0.7762,0,0.7734,0.77,0.7699,0,0,0,0.8039,0.8032,0.7985,0.8099,0.8043,0.7897,0.7962,0.7821,0.7807,0.7769,0.7759,0.7752,0.7731,0.7698,0.7698,0.755,0.7549,0,0,0.8047,0.8077,0.7995,0.7977,0.8004,0.7967,0.7957,0.7812,0.7802,0.7759,0.7748,0.7728,0.7697,0.7696,0.755,0.7549,0,0,0,0.8076,0.8084,0.804,0.7985,0.7958,0.7963,0.7952,0.7809,0.7792,0.7746,0.7726,0.7696,0.7694,0.755,0.755,0.7561,0,0,0,0.808,0.81,0.8044,0.8061,0.7961,0.7882,0.7952,0.7802,0.7785,0.7727,0.7696,0.7693,0.7551,0.755,0.7562,0.7561,0,0,0,0.8108,0.8103,0.8085,0.8063,0.8,0.7884,0.7858,0.7798,0.7773,0.7699,0.7692,0.7551,0.755,0.7562,0.7562,0.7531,0,0,0,0.8146,0.8095,0.8085,0.8021,0.8001,0.7893,0.7859,0.7776,0.7714,0.7695,0.7551,0.755,0.7563,0.7562,0.7532,0.7511,0.7505,0,0,0.8099,0.8091,0.805,0.8037,0.7939,0.7914,0.7816,0.7728,0.7692,0.7598,0.7594,0.7562,0.7562,0.7531,0.7464,0.746,0,0,0,0.8046,0.8017,0.7985,0.7929,0.7863,0.7806,0.7731,0.7699,0.7619,0.7651,0.7542,0.7541,0.7522,0.751,0.7506,0.7488,0.7546,0.7546,0.7546,0.8021,0.798,0.7911,0.7853,0.7798,0.7723,0.7674,0.7617,0.759,0.7565,0.7536,0.7501,0.7489,0.7486,0.7467,0.7522,0.7522,0.7523,0.7523,0.7947,0.7901,0.7868,0.779,0.7746,0.7678,0.7604,0.7587,0.7516,0.7519,0.75,0.7505,0.7483,0.7464,0.7523,0.7523,0.7523,0.7523,0.7523,0.7926,0.7896,0.7861,0.7776,0.7715,0.7657,0.7592,0.7553,0.7517,0.7498,0.7464,0.7464,0.7458,0.7485,0.7485,0.7485,0.7485,0.7484,0.7484,0.7918,0.7877,0.7828,0.7756,0.7716,0.7657,0.7582,0.754,0.7484,0.7461,0.746,0.7435,0.7489,0.7503,0.7482,0.7483,0.7483,0.7483,0.7483,0.7857,0.7865,0.779,0.775,0.7662,0.7604,0.7558,0.7476,0.7436,0.7405,0.7384,0.7431,0.7418,0.7421,0.7432,0.7394,0.7394,0.7394,0.7394,0.7838,0.783,0.7745,0.7683,0.7618,0.7569,0.7484,0.7425,0.7365,0.7337,0.7337,0.7349,0.7354,0.7338,0.7343,0.7353,0.7295,0.7295,0.7295,0.7798,0.7782,0.7717,0.7662,0.7591,0.7531,0.7449,0.7377,0.731,0.729,0.7314,0.7318,0.7337,0.7346,0.7325,0.7332,0.7349,0,0]}]]